GFSNE_con_mucape_105.txt.gz
CAPE
108 205 89 21 95 63 24 98 40 0 0 1 8 4 4 5 14 0 0 0 0 0 0 0 0 0 0 0 0 0 11 25 37 26 24 35 30 23
247 98 32 49 41 74 83 111 34 27 0 1 11 7 11 6 24 28 7 3 8 11 12 11 5 2 6 6 5 5 0 0 0 4 19 25 34 30
124 186 38 82 35 61 66 33 44 68 18 5 16 7 5 0 27 50 42 22 22 37 33 33 17 9 13 13 14 9 9 13 10 17 8 0 0 0
18 32 80 29 63 47 44 36 35 3 6 12 5 4 1 0 83 83 30 24 36 27 33 51 36 31 25 15 16 13 7 11 13 13 9 9 9 5
5 23 2 66 17 18 30 12 14 0 14 29 0 4 0 0 12 32 53 52 51 58 76 67 38 32 19 8 2 1 1 4 7 3 25 13 6 5
2 3 3 10 11 10 8 13 4 0 6 19 1 0 0 0 0 0 35 58 49 60 49 45 61 51 17 19 18 9 5 2 8 9 6 5 5 10
0 3 2 6 8 5 17 2 7 12 8 3 9 2 0 0 0 0 4 45 50 60 40 55 52 37 5 7 4 3 2 6 7 4 22 21 13 10
16 3 2 17 2 2 19 17 3 0 0 7 2 15 0 0 0 0 0 0 0 24 35 31 11 9 1 1 10 3 6 8 14 5 3 1 2 1
15 0 2 2 1 3 2 0 25 27 9 0 4 3 2 0 0 8 0 0 0 6 0 0 0 0 13 1 1 3 4 5 8 7 13 3 3 1
8 2 0 0 0 0 0 1 21 13 22 0 13 31 4 0 17 28 18 7 0 0 2 0 0 0 0 1 2 1 3 1 6 4 4 1 1 0
16 12 6 2 0 0 6 0 0 0 7 9 7 7 2 1 1 0 2 0 0 0 0 0 0 0 0 1 1 4 1 1 0 0 0 0 0 0
3 4 14 5 4 4 7 5 2 0 13 17 2 6 3 9 16 1 0 0 0 0 0 0 0 0 0 1 7 6 1 0 0 0 0 0 0 0
1 0 2 9 15 2 5 0 1 6 10 4 7 0 0 0 0 1 1 0 0 2 0 0 1 5 0 0 0 0 0 0 0 0 0 0 0 0
0 0 1 0 8 0 13 4 7 1 5 3 1 5 2 8 8 3 2 2 4 2 0 0 0 0 0 0 0 0 0 0 0 0 0 0 0 0
0 0 0 0 1 2 6 8 1 6 1 0 0 0 0 0 0 0 0 0 0 0 0 0 0 0 0 0 0 0 0 0 0 0 0 0 0 0
0 0 0 0 0 0 0 0 0 0 0 0 0 0 0 0 0 0 0 0 0 0 0 0 0 0 0 0 0 0 0 0 0 0 0 0 0 0
0 0 0 0 0 0 0 0 0 0 0 0 0 0 0 0 0 0 0 0 0 0 0 0 0 0 0 0 0 0 0 0 0 0 0 0 0 0
0 0 0 0 0 0 0 0 0 0 0 0 0 0 0 0 0 0 0 0 0 0 0 0 0 0 0 0 0 0 0 0 0 0 0 0 0 0
0 0 0 0 0 0 0 0 0 0 0 0 0 0 0 0 0 0 0 0 0 0 0 0 0 0 0 0 0 0 0 0 0 0 0 0 0 0
0 0 0 0 0 0 0 0 0 0 0 0 0 0 0 0 0 0 0 0 0 0 0 0 0 0 0 0 0 0 0 0 0 0 0 0 0 0
0 0 0 0 0 0 0 0 0 0 0 0 0 0 0 0 0 0 0 0 0 0 0 0 0 0 0 0 0 0 0 0 0 0 0 0 0 0
0 0 0 0 0 0 0 0 0 0 0 0 0 0 0 0 0 0 0 0 0 0 0 0 0 0 0 0 0 0 0 0 0 0 0 0 0 0
0 0 0 0 0 0 0 0 0 0 0 0 0 0 0 0 0 0 0 0 0 0 0 0 0 0 0 0 0 0 0 0 0 0 0 0 0 0

GFSNE_con_mucape_111.txt.gz
CAPE
1540 1541 1239 905 872 484 342 132 118 6 121 41 153 24 14 14 9 1 13 5 13 4 1 0 18 15 16 18 12 13 17 18 20 27 31 43 54 58
1249 1024 939 744 545 479 401 418 264 113 86 44 87 115 18 5 0 1 3 32 12 10 2 0 1 18 17 12 13 10 15 13 18 27 28 30 31 22
929 882 828 631 553 345 314 275 408 265 147 96 84 144 93 22 1 4 1 24 7 5 7 0 0 2 3 6 10 17 27 37 29 25 18 8 1 0
860 772 762 552 516 465 496 383 360 253 191 83 146 159 96 0 25 28 2 21 20 4 5 1 2 12 8 4 0 3 13 14 0 0 0 0 0 0
766 714 610 345 302 260 283 199 344 286 116 154 50 24 76 17 12 17 4 8 4 4 1 0 5 47 50 42 15 5 0 0 0 0 0 5 5 8
268 237 122 95 113 63 59 51 77 101 39 10 6 16 6 1 13 0 2 18 3 1 2 2 20 71 83 76 39 34 35 24 14 21 7 17 24 31
124 79 41 31 25 1 0 0 0 0 1 76 0 0 1 1 1 6 4 4 1 3 1 0 5 65 98 94 101 107 86 65 52 57 21 29 5 8
59 28 51 20 9 2 0 0 0 0 0 0 5 0 0 4 0 0 0 0 0 0 0 0 0 54 9 87 98 108 103 75 76 55 42 17 15 8
71 34 10 34 5 5 0 0 0 0 0 0 0 0 1 0 2 0 0 15 0 0 0 0 7 3 1 0 43 48 65 25 7 22 3 10 6 3
10 10 1 12 4 0 0 0 0 0 0 0 0 0 0 3 0 0 0 15 19 3 3 0 0 0 1 11 4 11 18 2 4 8 6 9 10 1
0 2 17 10 0 0 0 0 0 0 0 0 1 0 0 4 8 2 0 0 2 0 0 0 0 0 0 0 0 1 1 10 2 1 10 4 1 1
0 0 0 1 3 1 0 0 0 0 1 7 0 1 0 0 1 0 0 0 0 0 0 0 0 0 0 0 0 1 2 1 1 1 1 1 0 0
0 0 22 5 4 0 1 0 0 0 3 9 6 3 1 4 0 0 0 2 0 0 0 0 0 0 0 0 0 1 0 0 1 0 0 0 0 0
0 0 0 1 1 5 3 2 0 0 8 11 10 9 5 10 10 5 5 2 2 0 1 1 0 0 0 0 0 0 0 0 0 0 0 0 0 0
0 0 0 0 0 0 0 0 0 0 0 0 0 8 11 0 0 0 4 1 1 1 4 1 0 0 0 0 0 0 0 0 0 0 0 0 0 0
0 0 0 0 0 0 0 0 0 0 0 0 0 0 0 0 0 0 0 0 0 0 0 0 0 0 0 0 0 0 0 0 0 0 0 0 0 0
0 0 0 0 0 0 0 0 0 0 0 0 0 0 0 0 0 0 0 0 0 0 0 0 0 0 0 0 0 0 0 0 0 0 0 0 0 0
0 0 0 0 0 0 0 0 0 0 0 0 0 0 0 0 0 0 0 0 0 0 0 0 0 0 0 0 0 0 0 0 0 0 0 0 0 0
0 0 0 0 0 0 0 0 0 0 0 0 0 0 0 0 0 0 0 0 0 0 0 0 0 0 0 0 0 0 0 0 0 0 0 0 0 0
0 0 0 0 0 0 0 0 0 0 0 0 0 0 0 0 0 0 0 0 0 0 0 0 0 0 0 0 0 0 0 0 0 0 0 0 0 0
0 0 0 0 0 0 0 0 0 0 0 0 0 0 0 0 0 0 0 0 0 0 0 0 0 0 0 0 0 0 0 0 0 0 0 0 0 0
0 0 0 0 0 0 0 0 0 0 0 0 0 0 0 0 0 0 0 0 0 0 0 0 0 0 0 0 0 0 0 0 0 0 0 0 0 0
0 0 0 0 0 0 0 0 0 0 0 0 0 0 0 0 0 0 0 0 0 0 0 0 0 0 0 0 0 0 0 0 0 0 0 0 0 0

GFSNE_con_mucape_114.txt.gz
CAPE
1392 1218 915 696 518 383 341 337 319 159 117 128 86 27 0 88 71 31 6 5 0 29 50 53 0 0 4 12 15 9 11 8 11 19 19 19 24 28
1139 664 880 484 206 571 444 332 147 112 52 56 37 59 29 4 6 2 0 0 3 24 26 10 4 4 21 19 9 6 9 13 8 8 14 10 17 26
1137 935 649 21 212 416 220 227 129 100 62 47 58 69 80 48 21 8 18 2 20 35 21 21 13 4 11 27 13 11 11 12 14 15 16 23 36 36
1191 1096 737 440 457 391 317 258 159 181 99 63 45 72 64 43 67 32 28 19 4 27 21 26 8 3 5 11 36 38 26 25 23 31 38 27 55 51
1148 931 740 584 496 376 286 231 209 149 116 85 68 64 73 73 38 20 17 1 0 1 27 30 15 10 5 7 83 78 43 46 47 52 48 36 32 10
1062 678 508 532 453 301 173 147 119 90 78 67 44 41 19 33 54 37 10 1 8 7 5 21 12 21 6 1 2 27 69 51 46 28 23 7 3 3
768 539 396 339 227 107 72 39 8 86 87 8 9 6 10 99 52 36 38 10 1 16 5 1 6 13 3 6 2 41 85 103 76 34 20 10 20 26
531 364 206 109 57 58 23 6 37 1 0 0 0 0 2 1 15 30 0 22 11 8 43 0 1 0 3 3 36 56 102 117 106 87 81 104 89 87
197 107 84 69 80 41 8 0 1 0 0 0 0 0 7 10 7 16 3 0 2 7 11 0 2 0 2 3 35 42 81 72 91 95 97 79 71 78
186 33 30 10 3 7 15 2 0 0 0 0 0 0 0 0 3 9 0 0 7 6 9 0 0 0 1 3 4 2 11 9 11 30 40 2 37 11
67 39 6 0 14 7 2 0 0 0 0 0 0 0 0 3 0 4 2 0 0 0 2 0 0 0 0 0 1 8 1 1 11 1 1 12 1 0
2 6 18 11 0 0 6 0 0 0 0 0 0 5 10 4 0 0 8 0 8 0 0 0 0 0 0 0 0 1 1 1 1 0 1 1 1 1
1 1 0 1 0 0 0 0 0 0 0 0 0 9 15 13 10 4 10 8 4 0 0 0 0 0 0 0 0 1 1 0 0 1 1 1 0 0
0 0 0 0 0 0 0 2 5 0 0 0 0 0 0 6 18 13 6 7 13 7 3 1 0 0 0 0 0 0 0 0 0 0 0 0 0 0
0 0 0 0 0 0 0 3 1 0 0 0 0 1 4 6 7 21 10 5 10 16 9 7 4 0 0 0 0 0 0 0 0 0 0 0 0 0
0 0 0 0 0 0 0 0 0 0 0 0 0 0 0 0 0 0 1 0 0 0 0 0 0 0 0 0 0 0 0 0 0 0 0 0 0 0
0 0 0 0 0 0 0 0 0 0 0 0 0 0 0 0 0 0 0 0 0 0 0 0 0 0 0 0 0 0 0 0 0 0 0 0 0 0
0 0 0 0 0 0 0 0 0 0 0 0 0 0 0 0 0 0 0 0 0 0 0 0 0 0 0 0 0 0 0 0 0 0 0 0 0 0
0 0 0 0 0 0 0 0 0 0 0 0 0 0 0 0 0 0 0 0 0 0 0 0 0 0 0 0 0 0 0 0 0 0 0 0 0 0
0 0 0 0 0 0 0 0 0 0 0 0 0 0 0 0 0 0 0 0 0 0 0 0 0 0 0 0 0 0 0 0 0 0 0 0 0 0
0 0 0 0 0 0 0 0 0 0 0 0 0 0 0 0 0 0 0 0 0 0 0 0 0 0 0 0 0 0 0 0 0 0 0 0 0 0
0 0 0 0 0 0 0 0 0 0 0 0 0 0 0 0 0 0 0 0 0 0 0 0 0 0 0 0 0 0 0 0 0 0 0 0 0 0
0 0 0 0 0 0 0 0 0 0 0 0 0 0 0 0 0 0 0 0 0 0 0 0 0 0 0 0 0 0 0 0 0 0 0 0 0 0

GFSNE_con_mucape_117.txt.gz
CAPE
1340 1193 1025 1127 829 792 596 331 185 179 273 244 189 260 236 220 206 186 136 88 70 22 31 34 85 78 48 0 0 0 1 5 14 16 22 30 33 33
1374 1243 1066 814 715 607 493 280 154 140 168 216 219 152 140 141 150 128 72 65 48 79 51 63 56 57 55 10 1 0 6 7 4 0 7 14 23 20
1228 1260 1106 835 703 595 480 350 252 302 223 295 89 108 77 30 6 23 14 6 1 1 26 19 70 56 44 9 5 3 12 6 4 1 4 5 13 19
1192 1135 960 876 792 688 366 63 41 79 263 239 71 55 64 68 52 12 0 0 0 0 0 20 36 77 51 37 5 15 8 2 8 9 18 14 13 22
1172 1050 992 860 703 492 213 210 155 134 133 89 89 107 105 76 64 59 41 11 0 3 5 16 50 70 50 19 9 3 1 7 21 25 25 14 34 46
1005 988 1016 836 560 322 183 185 201 212 198 200 168 120 113 49 62 46 11 15 9 6 1 2 15 34 51 30 25 3 6 0 0 59 53 51 61 85
755 698 1049 907 456 268 321 344 247 190 126 154 124 253 140 18 11 3 4 13 5 8 3 11 4 14 30 24 24 15 9 10 35 1 74 86 67 85
602 876 963 845 531 501 516 431 301 171 90 26 100 115 12 0 25 23 17 3 11 8 3 15 13 5 32 12 3 21 17 5 2 5 3 55 74 71
550 611 717 591 429 409 429 304 131 91 42 65 70 13 0 1 0 9 5 15 2 6 21 0 8 0 4 7 8 8 4 4 2 1 0 61 73 59
329 432 401 315 281 294 303 79 68 88 22 0 8 5 0 0 2 0 5 4 6 2 8 5 12 0 16 13 6 6 2 1 20 1 54 1 69 30
259 191 286 205 246 118 83 70 29 13 5 1 2 3 1 0 0 0 0 0 0 6 0 0 14 0 2 12 3 2 3 3 1 2 1 0 1 1
168 84 1 40 0 11 13 2 22 0 5 1 0 1 0 0 3 0 0 0 1 2 4 0 0 0 0 0 1 7 2 10 23 1 1 1 0 0
0 0 0 0 0 0 0 0 0 12 0 0 2 0 0 0 9 14 15 3 0 7 7 14 9 1 0 0 0 0 1 1 1 1 1 1 0 0
0 0 0 0 0 0 0 0 0 0 0 0 0 0 0 0 4 13 18 11 10 5 13 15 12 6 4 0 0 0 0 0 0 0 0 0 0 0
0 0 0 0 0 0 0 0 0 0 0 0 0 0 0 0 0 0 2 2 2 12 6 7 2 0 0 0 1 0 0 0 0 0 0 0 0 0
0 0 0 0 0 0 0 0 0 0 0 0 0 0 0 0 0 0 8 12 0 0 1 0 1 0 9 0 0 2 0 0 0 0 0 0 0 0
0 0 0 0 0 0 0 0 0 0 0 0 0 0 0 0 0 0 0 0 0 0 0 0 0 0 0 0 0 0 0 0 0 0 0 0 0 0
0 0 0 0 0 0 0 0 0 0 0 0 0 0 0 0 0 0 0 0 0 0 0 0 0 0 0 0 0 0 0 0 0 0 0 0 0 0
0 0 0 0 0 0 0 0 0 0 0 0 0 0 0 0 0 0 0 0 0 0 0 0 0 0 0 0 0 0 0 0 0 0 0 0 0 0
0 0 0 0 0 0 0 0 0 0 0 0 0 0 0 0 0 0 0 0 0 0 0 0 0 0 0 0 0 0 0 0 0 0 0 0 0 0
0 0 0 0 0 0 0 0 0 0 0 0 0 0 0 0 0 0 0 0 0 0 0 0 0 0 0 0 0 0 0 0 0 0 0 0 0 0
0 0 0 0 0 0 0 0 0 0 0 0 0 0 0 0 0 0 0 0 0 0 0 0 0 0 0 0 0 0 0 0 0 0 0 0 0 0
0 0 0 0 0 0 0 0 0 0 0 0 0 0 0 0 0 0 0 0 0 0 0 0 0 0 0 0 0 0 0 0 0 0 0 0 0 0